Location: Burland Observatory
(39.4088°N, 105.4217°W)
Time: 14:08:01
(UTC-07:00)

Transit 4A - All Passes

Search period start: 09 December 2019 00:00
Search period end: 19 December 2019 00:00
Orbit: 870 x 975 km, 66.8° (Epoch: 08 December)

Date Brightness Start Highest point End Pass type
(mag) Time Alt. Az. Time Alt. Az. Time Alt. Az.
09 Dec - 01:16:09 10° N 01:21:12 29° NE 01:26:11 10° ESE night (unlit)
09 Dec - 03:02:12 10° NW 03:07:42 44° WSW 03:13:09 10° S night (unlit)
09 Dec - 16:21:21 10° S 16:27:15 47° ESE 16:33:02 10° NE daylight
09 Dec - 18:08:24 10° WSW 18:13:46 30° NW 18:19:03 10° N visible
10 Dec - 01:25:12 10° NNW 01:30:44 42° NE 01:36:11 10° SE night (unlit)
10 Dec - 03:11:55 10° NW 03:16:51 29° WSW 03:21:44 10° SSW night (unlit)
10 Dec - 16:30:19 10° SSW 16:36:30 71° ESE 16:42:32 10° NNE daylight
10 Dec - 18:18:45 10° W 18:23:24 22° NW 18:27:58 10° N visible
10 Dec - 23:50:21 10° NNE 23:52:34 12° NE 23:54:48 10° ENE night (unlit)
11 Dec - 01:34:22 10° NNW 01:40:10 62° ENE 01:45:54 10° SE night (unlit)
11 Dec - 03:22:03 10° WNW 03:25:55 19° WSW 03:29:47 10° SSW night (unlit)
11 Dec - 14:56:47 10° SE 15:00:11 15° ESE 15:03:33 10° ENE daylight
11 Dec - 16:39:35 10° SSW 16:45:49 80° WNW 16:51:54 10° NNE daylight
11 Dec - 18:29:31 10° WNW 18:33:07 16° NW 18:36:41 10° N visible
11 Dec - 23:58:40 10° N 00:02:22 17° NE 00:06:02 10° E night (unlit)
12 Dec - 01:43:40 10° NNW 01:49:31 89° WSW 01:55:19 10° SSE night (unlit)
12 Dec - 03:33:18 10° W 03:34:56 11° WSW 03:36:34 10° WSW night (unlit)
12 Dec - 15:04:27 10° SSE 15:09:16 24° ESE 15:13:58 10° NE daylight
12 Dec - 16:49:09 10° SW 16:55:12 54° WNW 17:01:08 10° NNE daylight
12 Dec - 18:41:03 10° NW 18:42:56 11° NW 18:44:48 10° NNW visible
13 Dec - 00:07:27 10° N 00:12:04 23° NE 00:16:37 10° E night (unlit)
13 Dec - 01:53:06 10° NW 01:58:48 59° WSW 02:04:27 10° SSE night (unlit)
13 Dec - 15:12:48 10° S 15:18:23 36° ESE 15:23:52 10° NE daylight
13 Dec - 16:58:59 10° WSW 17:04:41 38° NW 17:10:16 10° NNE visible
14 Dec - 00:16:25 10° NNW 00:21:39 33° NE 00:26:49 10° ESE night (unlit)
14 Dec - 02:02:40 10° NW 02:08:00 38° WSW 02:13:17 10° S night (unlit)
14 Dec - 15:21:34 10° S 15:27:36 54° ESE 15:33:29 10° NE daylight
14 Dec - 17:09:07 10° WSW 17:14:15 27° NW 17:19:17 10° N visible
15 Dec - 00:25:30 10° NNW 00:31:08 48° NE 00:36:43 10° SE night (unlit)
15 Dec - 02:12:32 10° NW 02:17:07 25° WSW 02:21:42 10° SSW night (unlit)
15 Dec - 13:49:55 10° ESE 13:51:26 11° E 13:52:56 10° E daylight
15 Dec - 15:30:40 10° SSW 15:36:51 81° ESE 15:42:56 10° NNE daylight
15 Dec - 17:19:36 10° W 17:23:53 19° NW 17:28:08 10° N visible
15 Dec - 22:50:16 10° N 22:53:07 14° NE 22:55:57 10° ENE night (unlit)
16 Dec - 00:34:43 10° NNW 00:40:33 72° ENE 00:46:19 10° SE night (unlit)
16 Dec - 02:22:53 10° WNW 02:26:11 16° WSW 02:29:29 10° SW night (unlit)
16 Dec - 13:56:28 10° SE 14:00:27 18° ESE 14:04:23 10° ENE daylight
16 Dec - 15:40:02 10° SW 15:46:12 70° WNW 15:52:14 10° NNE daylight
16 Dec - 17:30:34 10° WNW 17:33:39 14° NW 17:36:42 10° N visible
16 Dec - 22:58:49 10° N 23:02:52 19° NE 23:06:53 10° E night (unlit)
17 Dec - 00:44:03 10° NNW 00:49:52 77° WSW 00:55:39 10° SSE night (unlit)
17 Dec - 14:04:26 10° SSE 14:09:33 28° ESE 14:14:34 10° NE daylight
17 Dec - 15:49:41 10° SW 15:55:37 47° NW 16:01:26 10° NNE daylight
17 Dec - 23:07:40 10° N 23:12:32 26° NE 23:17:20 10° ESE night (unlit)
18 Dec - 00:53:31 10° NW 00:59:06 50° WSW 01:04:41 10° S night (unlit)
18 Dec - 14:12:57 10° S 14:18:42 42° ESE 14:24:20 10° NE daylight
18 Dec - 15:59:38 10° WSW 16:05:07 33° NW 16:10:31 10° NNE daylight
18 Dec - 23:16:40 10° NNW 23:22:05 38° NE 23:27:25 10° ESE night (unlit)
